Flag for United Kingdom Weather past 2 weeks in Belfast, Northern Ireland, United Kingdom

Now
79 °F

Passing clouds.


Feels Like: 79 °F
Forecast: 57 / 76 °F
Wind: 8 mph from Southeast

Location: Belfast / Harbour

Current Time: Jul 24, 2014 at 5:16:22 PM

Latest Report: Jul 24, 2014 at 4:50 PM


Visibility: N/A

Pressure: 30.12 "Hg

Humidity: 42%

Dew point: 54 °F

Location of BelfastLocation

Historic Weather in Belfast — Graph

°F

Belfast temperature yesterday

Maximum temperature yesterday: 75 °F (at 3:50 PM)
Minimum temperature yesterday: 64 °F (at 9:50 PM)
Average temperature yesterday: 73 °F

Past Weeks' High & Low Weather Summary

 TemperatureHumidityPressure
High79 °F (Jul 24, 2:50 PM)100% (Jul 19, 6:20 AM)30.24 "Hg (Jul 19, 6:20 AM)
Low52 °F (Jul 15, 5:50 AM)45% (Jul 24, 3:20 PM)29.65 "Hg (Jul 14, 3:50 PM)
Average65 °F75%29.99 "Hg
* Reported Jul 9 4:20 PM — Jul 24 4:20 PM, Belfast, Weather by CustomWeather, © 2014

Note: Actual official high and low records may vary slightly from our data, if they occured in-between our weather recording intervals... More about our weather records

Advertising

Belfast weather history for previous 24 hours

 ConditionsComfort  
Time TempWeatherWind HumidityBarometerVisibility
4:20 PM
Jul 24
77 °FPassing clouds.9 mph47%30.12 "HgN/A
3:50 PM77 °FPassing clouds.9 mph47%30.12 "HgN/A
3:20 PM79 °FPassing clouds.8 mph45%30.12 "HgN/A
2:50 PM79 °FPassing clouds.8 mph48%30.12 "HgN/A
2:20 PM77 °FPassing clouds.8 mph47%30.15 "HgN/A
1:50 PM77 °FPassing clouds.8 mph51%30.15 "HgN/A
1:20 PM75 °FPassing clouds.9 mph54%30.15 "HgN/A
12:50 PM75 °FPassing clouds.7 mph54%30.15 "HgN/A
12:20 PM73 °FSunny.8 mph57%30.15 "Hg10 mi
11:50 AM73 °FPassing clouds.8 mph61%30.15 "HgN/A
11:20 AM73 °FPassing clouds.10 mph61%30.15 "HgN/A
10:50 AM73 °FSunny.12 mph61%30.15 "Hg10 mi
10:20 AM70 °FSunny.10 mph69%30.15 "Hg10 mi
9:50 AM70 °FPassing clouds.10 mph69%30.15 "HgN/A
9:20 AM68 °FPassing clouds.9 mph73%30.15 "HgN/A
8:50 AM68 °FSunny.9 mph73%30.15 "Hg10 mi
8:20 AM66 °FSunny.8 mph78%30.15 "Hg10 mi
7:50 AM66 °FSunny.7 mph78%30.15 "Hg10 mi
7:20 AM64 °FSunny.8 mph83%30.12 "Hg10 mi
6:50 AM63 °FSunny.5 mph83%30.12 "Hg10 mi
6:20 AM61 °FSunny.No wind88%30.12 "Hg10 mi
9:50 PM
Jul 23
64 °FSunny.6 mph83%30.15 "Hg10 mi
9:20 PM68 °FSunny.6 mph73%30.15 "Hg10 mi
8:50 PM70 °FSunny.2 mph73%30.12 "Hg10 mi
8:20 PM70 °FSunny.5 mph73%30.12 "Hg10 mi
7:50 PM72 °FSunny.5 mph69%30.12 "Hg10 mi
7:20 PM75 °FPassing clouds.5 mph50%30.12 "HgN/A
6:50 PM75 °FPassing clouds.7 mph54%30.15 "HgN/A
6:20 PM75 °FPassing clouds.8 mph54%30.15 "HgN/A
5:50 PM75 °FPassing clouds.7 mph54%30.15 "HgN/A
5:20 PM75 °FPassing clouds.8 mph54%30.15 "HgN/A
Weather by CustomWeather, © 2014

See weather overviewHow to use our weather pages